• In Hungary
  • List of Countries
  • For 7 days
  • Water Temperature
  • Satellite Maps
  • Weather Map
  • News
  • Weather Widgets
  • user-avatar
    Login

    Hourly Weather Poronin

    Today, 24 May, Thursday

    Time Temperature Precipitation Wind Pressure Humidity
    00:00 +12°C° 0 mm 1 mps 700 mmHg 95%
    01:00 +12°C° 0 mm 1 mps 701 mmHg 95%
    02:00 +12°C° 0 mm 1 mps 701 mmHg 95%
    03:00 +11°C° 0 mm 1 mps 700 mmHg 95%
    04:00 +11°C° 0 mm 1 mps 700 mmHg 96%
    05:00 +12°C° 0 mm 2 mps 701 mmHg 94%
    06:00 +14°C° 0 mm 2 mps 701 mmHg 92%
    07:00 +15°C° 0 mm 2 mps 702 mmHg 90%
    08:00 +16°C° 0.1 mm 2 mps 702 mmHg 85%
    09:00 +17°C° 0.1 mm 3 mps 702 mmHg 80%
    10:00 +18°C° 0.1 mm 3 mps 702 mmHg 75%
    11:00 +19°C° 0.2 mm 3 mps 702 mmHg 72%
    12:00 +20°C° 0.2 mm 4 mps 702 mmHg 68%
    13:00 +20°C° 0.2 mm 4 mps 702 mmHg 65%
    14:00 +20°C° 0.3 mm 4 mps 701 mmHg 66%
    15:00 +20°C° 0.3 mm 4 mps 701 mmHg 67%
    16:00 +20°C° 0.3 mm 4 mps 701 mmHg 68%
    17:00 +18°C° 0 mm 3 mps 700 mmHg 73%
    18:00 +17°C° 0 mm 3 mps 700 mmHg 79%
    19:00 +16°C° 0 mm 2 mps 700 mmHg 84%
    20:00 +14°C° 0 mm 2 mps 700 mmHg 87%
    21:00 +13°C° 0 mm 2 mps 700 mmHg 90%
    22:00 +12°C° 0 mm 1 mps 700 mmHg 93%
    23:00 +12°C° 0 mm 1 mps 700 mmHg 94%

    Tomorrow, 25 May, Friday

    Time Temperature Precipitation Wind Pressure Humidity
    00:00 +11°C° 0 mm 1 mps 700 mmHg 94%
    01:00 +11°C° 0 mm 1 mps 699 mmHg 94%
    02:00 +10°C° 0 mm 1 mps 699 mmHg 94%
    03:00 +10°C° 0 mm 1 mps 699 mmHg 95%
    04:00 +10°C° 0 mm 1 mps 699 mmHg 95%
    05:00 +11°C° 0 mm 1 mps 699 mmHg 89%
    06:00 +13°C° 0 mm 2 mps 700 mmHg 83%
    07:00 +15°C° 0 mm 2 mps 700 mmHg 77%
    08:00 +16°C° 0 mm 2 mps 700 mmHg 70%
    09:00 +18°C° 0 mm 2 mps 701 mmHg 64%
    10:00 +19°C° 0 mm 3 mps 701 mmHg 57%
    11:00 +20°C° 0 mm 3 mps 701 mmHg 56%
    12:00 +20°C° 0 mm 2 mps 701 mmHg 54%
    13:00 +21°C° 0 mm 2 mps 701 mmHg 53%
    14:00 +20°C° 0.1 mm 2 mps 701 mmHg 57%
    15:00 +20°C° 0.1 mm 2 mps 700 mmHg 61%
    16:00 +20°C° 0.1 mm 2 mps 700 mmHg 65%
    17:00 +18°C° 0.1 mm 2 mps 700 mmHg 72%
    18:00 +18°C° 0.1 mm 1 mps 700 mmHg 80%
    19:00 +15°C° 0.1 mm 1 mps 700 mmHg 87%
    20:00 +14°C° 0 mm 1 mps 700 mmHg 89%
    21:00 +13°C° 0 mm 1 mps 700 mmHg 91%
    22:00 +12°C° 0 mm 1 mps 700 mmHg 93%
    23:00 +12°C° 0 mm 1 mps 700 mmHg 93%

    Day after tomorrow, 26 May, Saturday

    Time Temperature Precipitation Wind Pressure Humidity
    00:00 +12°C° 0 mm 1 mps 700 mmHg 92%
    01:00 +11°C° 0 mm 0 mps 701 mmHg 92%
    02:00 +11°C° 0 mm 0 mps 701 mmHg 91%
    03:00 +11°C° 0 mm 0 mps 701 mmHg 91%
    04:00 +11°C° 0 mm 0 mps 701 mmHg 91%
    05:00 +13°C° 0 mm 0 mps 701 mmHg 87%
    06:00 +14°C° 0 mm 0 mps 702 mmHg 83%
    07:00 +16°C° 0 mm 0 mps 702 mmHg 80%
    08:00 +17°C° 0.1 mm 0 mps 702 mmHg 73%
    09:00 +21°C° 0.1 mm 1 mps 703 mmHg 66%
    10:00 +23°C° 0.1 mm 1 mps 703 mmHg 60%
    11:00 +23°C° 0.5 mm 1 mps 703 mmHg 61%
    12:00 +23°C° 0.5 mm 2 mps 703 mmHg 62%
    13:00 +23°C° 0.5 mm 2 mps 702 mmHg 63%
    14:00 +23°C° 1 mm 2 mps 702 mmHg 66%
    15:00 +22°C° 1 mm 1 mps 702 mmHg 70%
    16:00 +22°C° 1 mm 1 mps 702 mmHg 73%
    17:00 +21°C° 0.3 mm 1 mps 701 mmHg 78%
    18:00 +19°C° 0.3 mm 1 mps 701 mmHg 83%
    19:00 +16°C° 0.3 mm 0 mps 701 mmHg 88%
    20:00 +16°C° 0.2 mm 1 mps 701 mmHg 89%
    21:00 +15°C° 0.2 mm 1 mps 701 mmHg 91%
    22:00 +15°C° 0.2 mm 1 mps 701 mmHg 92%
    23:00 +14°C° 0 mm 1 mps 701 mmHg 92%

    27 May, Sunday

    Time Temperature Precipitation Wind Pressure Humidity
    00:00 +14°C° 0 mm 1 mps 701 mmHg 92%
    01:00 +14°C° 0 mm 1 mps 700 mmHg 92%
    02:00 +13°C° 0 mm 1 mps 700 mmHg 92%
    03:00 +12°C° 0 mm 0 mps 700 mmHg 92%
    04:00 +12°C° 0 mm 0 mps 700 mmHg 92%
    05:00 +14°C° 0 mm 0 mps 701 mmHg 88%
    06:00 +15°C° 0 mm 0 mps 701 mmHg 83%
    07:00 +19°C° 0 mm 1 mps 702 mmHg 79%
    08:00 +21°C° 0.1 mm 1 mps 702 mmHg 72%
    09:00 +22°C° 0.1 mm 1 mps 702 mmHg 66%
    10:00 +24°C° 0.1 mm 1 mps 702 mmHg 60%
    11:00 +24°C° 0.7 mm 1 mps 702 mmHg 62%
    12:00 +24°C° 0.7 mm 1 mps 702 mmHg 65%
    13:00 +24°C° 0.7 mm 2 mps 702 mmHg 67%
    14:00 +23°C° 1.1 mm 1 mps 702 mmHg 69%
    15:00 +23°C° 1.1 mm 1 mps 702 mmHg 71%
    16:00 +23°C° 1.1 mm 1 mps 701 mmHg 73%
    17:00 +21°C° 0.3 mm 1 mps 701 mmHg 79%
    18:00 +20°C° 0.3 mm 1 mps 701 mmHg 84%
    19:00 +19°C° 0.3 mm 1 mps 701 mmHg 90%
    20:00 +18°C° 0.1 mm 1 mps 701 mmHg 92%
    21:00 +16°C° 0.1 mm 1 mps 701 mmHg 93%
    22:00 +15°C° 0.1 mm 1 mps 701 mmHg 95%
    23:00 +15°C° 0 mm 1 mps 701 mmHg 95%

    28 May, Monday

    Time Temperature Precipitation Wind Pressure Humidity
    00:00 +14°C° 0 mm 1 mps 701 mmHg 95%
    01:00 +14°C° 0 mm 1 mps 701 mmHg 95%
    02:00 +14°C° 0 mm 1 mps 701 mmHg 95%
    03:00 +14°C° 0 mm 1 mps 701 mmHg 95%
    04:00 +13°C° 0 mm 1 mps 701 mmHg 95%
    05:00 +15°C° 0 mm 1 mps 702 mmHg 91%
    06:00 +18°C° 0 mm 1 mps 702 mmHg 87%
    07:00 +20°C° 0 mm 1 mps 703 mmHg 82%
    08:00 +21°C° 0.2 mm 1 mps 703 mmHg 75%
    09:00 +23°C° 0.2 mm 1 mps 703 mmHg 68%
    10:00 +25°C° 0.2 mm 2 mps 704 mmHg 61%
    11:00 +24°C° 1.1 mm 2 mps 704 mmHg 63%
    12:00 +24°C° 1.1 mm 2 mps 703 mmHg 65%
    13:00 +24°C° 1.1 mm 2 mps 703 mmHg 67%
    14:00 +24°C° 1 mm 2 mps 703 mmHg 69%
    15:00 +24°C° 1 mm 2 mps 703 mmHg 70%
    16:00 +23°C° 1 mm 2 mps 703 mmHg 72%
    17:00 +21°C° 0.2 mm 2 mps 703 mmHg 77%
    18:00 +20°C° 0.2 mm 2 mps 702 mmHg 82%
    19:00 +18°C° 0.2 mm 2 mps 702 mmHg 87%
    20:00 +18°C° 0.1 mm 1 mps 702 mmHg 89%
    21:00 +16°C° 0.1 mm 1 mps 702 mmHg 92%
    22:00 +15°C° 0.1 mm 1 mps 702 mmHg 94%
    23:00 +15°C° 0 mm 1 mps 702 mmHg 94%

    29 May, Tuesday

    Time Temperature Precipitation Wind Pressure Humidity
    00:00 +15°C° 0 mm 1 mps 702 mmHg 94%
    01:00 +14°C° 0 mm 1 mps 702 mmHg 95%
    02:00 +14°C° 0 mm 1 mps 702 mmHg 95%
    03:00 +14°C° 0 mm 1 mps 702 mmHg 95%
    04:00 +14°C° 0 mm 1 mps 702 mmHg 95%
    05:00 +16°C° 0 mm 1 mps 702 mmHg 90%
    06:00 +18°C° 0 mm 1 mps 703 mmHg 85%
    07:00 +20°C° 0 mm 1 mps 703 mmHg 80%
    08:00 +21°C° 0 mm 2 mps 703 mmHg 71%
    09:00 +24°C° 0 mm 2 mps 704 mmHg 63%
    10:00 +25°C° 0 mm 2 mps 704 mmHg 55%
    11:00 +25°C° 0.3 mm 2 mps 704 mmHg 54%
    12:00 +26°C° 0.3 mm 2 mps 704 mmHg 53%
    13:00 +26°C° 0.3 mm 3 mps 704 mmHg 52%
    14:00 +26°C° 0.4 mm 3 mps 703 mmHg 55%
    15:00 +25°C° 0.4 mm 2 mps 703 mmHg 58%
    16:00 +25°C° 0.4 mm 2 mps 703 mmHg 60%
    17:00 +23°C° 0.2 mm 2 mps 702 mmHg 68%
    18:00 +20°C° 0.2 mm 2 mps 702 mmHg 76%
    19:00 +19°C° 0.2 mm 2 mps 702 mmHg 83%
    20:00 +18°C° 0 mm 2 mps 702 mmHg 86%
    21:00 +16°C° 0 mm 1 mps 702 mmHg 90%
    22:00 +15°C° 0 mm 1 mps 701 mmHg 93%
    23:00 +15°C° 0 mm 1 mps 701 mmHg 93%
    Show more